Regional Weather Roundup
Issued by NWS

Home | Current Version | Previous Version | Text Only | Print | Product List | Glossary On
Versions: 1 2 3 4 5 6 7 8 9 10 11 12 13 14 15 16 17 18 19 20 21 22 23 24 25 26 27 28 29 30 31 32 33 34 35 36 37 38 39 40 41 42 43 44 45 46 47 48 49 50
000
ASUS42 KFFC 230603
RWRGA
WEATHER ROUNDUP FOR GEORGIA
NATIONAL WEATHER SERVICE PEACHTREE CITY GA
200 AM EDT SAT AUG 23 2014

NOTE: "FAIR" INDICATES FEW OR NO CLOUDS BELOW 12,000 FEET WITH NO
SIGNIFICANT WEATHER AND/OR OBSTRUCTIONS TO VISIBILITY.

* = USE WITH CAUTION. THE STATIONS MARKED WITH AN ASTERISK MAY NOT
REPORT WEATHER SUCH AS PRECIPITATION, FOG, OR THUNDER AND ARE NOT
QUALITY CONTROLLED BY NWS.

THE REMARK "TC" DENOTES TEMPERATURE READING IN DEGREES CELSIUS.

GAZ001>058-230700-
NORTH GEORGIA

CITY           SKY/WX    TMP DP  RH WIND       PRES   REMARKS
ATLANTA        FAIR      79  71  76 NW7       30.03F
6HR MIN TEMP:  79; 6HR MAX TEMP:  89;

ATHENS         FAIR      77  69  76 NW3       30.01S
6HR MIN TEMP:  77; 6HR MAX TEMP:  88;

CHAMBLEE       FAIR      75  71  87 CALM      30.03F
6HR MIN TEMP:  75; 6HR MAX TEMP:  87;

PEACHTREE CITY FAIR      74  72  93 CALM      30.03F
6HR MIN TEMP:  74; 6HR MAX TEMP:  83;

ROME           FAIR      73  72  96 CALM      30.02F
6HR MIN TEMP:  73; 6HR MAX TEMP:  89;

WEST ATLANTA   FAIR      76  73  91 CALM      30.03S
6HR MIN TEMP:  75; 6HR MAX TEMP:  87;

GAINESVILLE    FAIR      77  71  82 NW5       30.05F
6HR MIN TEMP:  76; 6HR MAX TEMP:  86;

CARTERSVILLE   FAIR      73  71  93 CALM      30.03F
6HR MIN TEMP:  71; 6HR MAX TEMP:  87;



CITY           SKY/WX    TMP DP  RH WIND       PRES   REMARKS
DALTON*        FAIR      72  72 100 CALM      30.02F
MARIETTA       FAIR      75  73  91 W5        30.04S
$$

GAZ059>098-102>109-230700-
CENTRAL GEORGIA

CITY           SKY/WX    TMP DP  RH WIND       PRES   REMARKS
AUGUSTA-BUSH   FAIR      73  72  96 CALM      29.95F
6HR MIN TEMP:  73; 6HR MAX TEMP:  92;

AUGUSTA-DANIEL FAIR      85  70  60 NW7       29.97F
6HR MIN TEMP:  85; 6HR MAX TEMP:  94;

COLUMBUS       FAIR      81  74  79 CALM      29.99F
6HR MIN TEMP:  81; 6HR MAX TEMP:  93;

MACON          FAIR      75  75 100 W3        29.98F
6HR MIN TEMP:  75; 6HR MAX TEMP:  91;

ROBINS AFB     FAIR      76  75  95 CALM      29.98F


CITY           SKY/WX    TMP DP  RH WIND       PRES   REMARKS
LAGRANGE*      FAIR      78  77  98 CALM      30.02F
SYLVANIA*      FAIR      77  76  96 CALM      29.96F
$$

GAZ099>101-110>166-230700-
SOUTH GEORGIA

CITY           SKY/WX    TMP DP  RH WIND       PRES   REMARKS
SAVANNAH       FAIR      82  74  76 SW3       29.95F
6HR MIN TEMP:  82; 6HR MAX TEMP:  93;

VALDOSTA       FAIR      76  72  87 CALM      29.98F
6HR MIN TEMP:  76; 6HR MAX TEMP:  89;

ALMA           FAIR      77  74  90 CALM      29.96F
6HR MIN TEMP:  77; 6HR MAX TEMP:  91;

ST SIMONS      FAIR      82  73  74 SW7       29.96F
6HR MIN TEMP:  82; 6HR MAX TEMP:  86;

FT STEWART     FAIR      81  74  79 NW1       29.94F
ALBANY         FAIR      79  74  84 CALM      30.00F
HUNTER AFB     FAIR      82  74  77 SW6       29.93F
MOODY AFB      FAIR      82  73  74 W2        29.98F
BRUNSWICK      FAIR      82  72  69 SW6       29.97F


CITY           SKY/WX    TMP DP  RH WIND       PRES   REMARKS
BAINBRIDGE*    FAIR      81  77  89 CALM      30.00S
MOULTRIE*      FAIR      79  75  89 CALM      30.00F
VIDALIA*         N/A     81  73  78 CALM      29.97F
WAYCROSS*      FAIR      82  76  82 CALM      29.97S
DOUGLAS*       FAIR      79  73  83 CALM      29.99F
$$


USA.gov is the U.S. government's official web portal to all federal, state and local government web resources and services.